Charleroi, Belgium

6:56 PM CET on February 21, 2017 (GMT +0100)
Brussels South

Weather History for EBCI - December, 2013

Change the Weather History Date:

Sunday, December 1, 2013

  Actual Average Record
Temperature  
Mean Temperature 42 °F -  
Max Temperature 45 °F 40 °F 57 °F (2000)
Min Temperature 38 °F 32 °F 19 °F (2010)
Degree Days  
Heating Degree Days 24    
Moisture  
Dew Point 40 °F    
Average Humidity 91    
Maximum Humidity 100    
Minimum Humidity 79    
Precipitation  
Precipitation 0.00 in - - ()
Sea Level Pressure  
Sea Level Pressure 30.43 in    
Wind  
Wind Speed 4 mph ()    
Max Wind Speed 6 mph    
Max Gust Speed -    
Visibility 3.4 miles    
Events Fog , Rain    
Averages and records for this station are not official NWS values.
T = Trace of Precipitation, MM = Missing Value Source: Averaged Metar Reports

Daily Weather History Graph

Daily Weather History Graph

Search for Another Location

Airport or City:

Trip Planner

Search our weather history database for the weather conditions in past years. The results will help you decide how hot, cold, wet, or windy it might be!

Date:

Astronomy

Dec. 01, 2013 Rise Set
Actual Time 8:21 AM CET 4:41 PM CET
Civil Twilight 7:43 AM CET 5:19 PM CET
Nautical Twilight 7:01 AM CET 6:00 PM CET
Astronomical Twilight 6:22 AM CET 6:39 PM CET
Moon 6:11 AM CET (12/1) 3:46 PM CET (12/1)
Length of Visible Light 9h 36m
Length of Day
8h 20m
Waning Crescent, 3% of the Moon is Illuminated
Dec 1
Waning Crescent
Dec 3
New
Dec 9
First Quarter
Dec 17
Full
Dec 25
Last Quarter

Hourly Weather History & Observations

Time (CET) Temp. Windchill Dew Point Humidity Pressure Visibility Wind Dir Wind Speed Gust Speed Precip Events Conditions
12:20 AM 41.0 °F 38.0 °F 41.0 °F 100% 30.39 in 1.6 mi WNW 4.6 mph - N/A   Mostly Cloudy
12:50 AM 41.0 °F 39.0 °F 41.0 °F 100% 30.36 in - NW 3.5 mph - N/A   Mostly Cloudy
1:00 AM 41 °F - 40 °F 97% 30.40 in 3 mi NW 4.5 mph - -   Mist
1:20 AM 41.0 °F 39.0 °F 41.0 °F 100% 30.36 in 2.5 mi WNW 3.5 mph - N/A   Mostly Cloudy
1:50 AM 41.0 °F 38.0 °F 39.2 °F 93% 30.36 in - NW 4.6 mph - N/A Rain Light Rain
2:20 AM 41.0 °F 38.0 °F 39.2 °F 93% 30.36 in - NW 4.6 mph - N/A Rain Light Rain
2:50 AM 41.0 °F 38.0 °F 39.2 °F 93% 30.39 in - NNW 4.6 mph - N/A Rain Light Rain
3:20 AM 41.0 °F - 39.2 °F 93% 30.36 in - Variable 2.3 mph - N/A Rain Light Rain
3:50 AM 41.0 °F 38.0 °F 39.2 °F 93% 30.39 in - NNW 4.6 mph - N/A Rain Light Rain
4:00 AM 41 °F - 40 °F 95% 30.41 in 3 mi NNW 4.5 mph - -   Mostly Cloudy
4:20 AM 41.0 °F 38.0 °F 39.2 °F 93% 30.39 in 0.7 mi NNW 4.6 mph - N/A Fog Patches of Fog
4:50 AM 41.0 °F 38.0 °F 41.0 °F 100% 30.39 in 0.5 mi NW 4.6 mph - N/A Fog Fog
5:20 AM 41.0 °F - 39.2 °F 93% 30.39 in 0.2 mi Variable 1.2 mph - N/A Fog Fog
5:50 AM 39.2 °F - 39.2 °F 100% 30.39 in 0.0 mi SE 1.2 mph - N/A Fog Fog
6:20 AM 39.2 °F - 39.2 °F 100% 30.39 in 0.1 mi Variable 1.2 mph - N/A Fog Fog
6:50 AM 39.2 °F - 39.2 °F 100% 30.39 in 0.1 mi Variable 1.2 mph - N/A Fog Fog
7:00 AM 40 °F - 40 °F 99% 30.44 in 0 mi West 2.2 mph - - Fog Partial Fog
7:20 AM 39.2 °F - 39.2 °F 100% 30.42 in 0.1 mi West 2.3 mph - N/A Fog Fog
7:50 AM 39.2 °F 37.0 °F 39.2 °F 100% 30.42 in 0.2 mi SW 3.5 mph - N/A Fog Fog
8:20 AM 39.2 °F 37.0 °F 39.2 °F 100% 30.42 in 0.2 mi SSW 3.5 mph - N/A Fog Fog
8:50 AM 39.2 °F 35.9 °F 39.2 °F 100% 30.42 in 0.2 mi SW 4.6 mph - N/A Fog Fog
9:20 AM 39.2 °F 35.9 °F 39.2 °F 100% 30.42 in 0.2 mi WSW 4.6 mph - N/A Fog Fog
9:50 AM 41.0 °F 39.0 °F 39.2 °F 93% 30.45 in 0.2 mi SW 3.5 mph - N/A Fog Fog
10:00 AM 40 °F - 40 °F 100% 30.47 in 0 mi SW 4.5 mph - - Fog Partial Fog
10:20 AM 41.0 °F - 39.2 °F 93% 30.45 in 0.5 mi Variable 2.3 mph - N/A Fog Fog
10:50 AM 41.0 °F 39.0 °F 39.2 °F 93% 30.45 in 1.6 mi WSW 3.5 mph - N/A   Mostly Cloudy
11:20 AM 41.0 °F - 39.2 °F 93% 30.45 in 2.5 mi Variable 2.3 mph - N/A   Scattered Clouds
11:50 AM 42.8 °F 41.1 °F 39.2 °F 87% 30.45 in 3.1 mi WNW 3.5 mph - N/A   Partly Cloudy
12:20 PM 44.6 °F 43.1 °F 41.0 °F 87% 30.42 in 4.3 mi NW 3.5 mph - N/A   Partly Cloudy
12:50 PM 44.6 °F 42.2 °F 41.0 °F 87% 30.42 in 4.3 mi NW 4.6 mph - N/A   Scattered Clouds
1:00 PM 44 °F - 41 °F 84% 30.46 in 4 mi NW 4.5 mph - -   Partly Cloudy
1:20 PM 44.6 °F 42.2 °F 41.0 °F 87% 30.42 in 4.3 mi North 4.6 mph - N/A   Scattered Clouds
1:50 PM 44.6 °F 42.2 °F 39.2 °F 81% 30.42 in 5.0 mi North 4.6 mph - N/A   Scattered Clouds
2:20 PM 44.6 °F 43.1 °F 41.0 °F 87% 30.42 in 5.0 mi NW 3.5 mph - N/A   Partly Cloudy
2:50 PM 44.6 °F 42.2 °F 41.0 °F 87% 30.42 in 5.0 mi NNW 4.6 mph - N/A   Partly Cloudy
3:20 PM 44.6 °F 42.2 °F 41.0 °F 87% 30.42 in 5.6 mi NNW 4.6 mph - N/A   Partly Cloudy
3:50 PM 44.6 °F 42.2 °F 39.2 °F 81% 30.42 in 6.2 mi NW 4.6 mph - N/A   Partly Cloudy
4:00 PM 44 °F - 40 °F 79% 30.46 in 6 mi NW 4.5 mph - -   Scattered Clouds
4:20 PM 44.6 °F 42.2 °F 41.0 °F 87% 30.42 in 5.6 mi North 4.6 mph - N/A   Scattered Clouds
4:50 PM 42.8 °F 41.1 °F 39.2 °F 87% 30.42 in 6.2 mi NNW 3.5 mph - N/A   Partly Cloudy
5:20 PM 42.8 °F 40.1 °F 39.2 °F 87% 30.45 in 6.2 mi NNW 4.6 mph - N/A   Scattered Clouds
5:50 PM 42.8 °F 41.1 °F 37.4 °F 81% 30.45 in 6.2 mi North 3.5 mph - N/A   Scattered Clouds
6:20 PM 41.0 °F 39.0 °F 37.4 °F 87% 30.45 in 6.2 mi North 3.5 mph - N/A   Partly Cloudy
6:50 PM 41.0 °F 38.0 °F 37.4 °F 87% 30.45 in 6.2 mi North 4.6 mph - N/A   Mostly Cloudy
7:00 PM 41 °F - 38 °F 85% 30.49 in 7 mi North 4.5 mph - -   Mostly Cloudy
7:20 PM 41.0 °F 38.0 °F 39.2 °F 93% 30.45 in 6.2 mi North 4.6 mph - N/A   Mostly Cloudy
7:50 PM 42.8 °F 41.1 °F 37.4 °F 81% 30.45 in 6.2 mi North 3.5 mph - N/A   Mostly Cloudy
8:20 PM 42.8 °F 39.3 °F 39.2 °F 87% 30.48 in 6.2 mi North 5.8 mph - N/A   Mostly Cloudy
8:50 PM 42.8 °F 40.1 °F 39.2 °F 87% 30.48 in 4.3 mi North 4.6 mph - N/A   Light Drizzle
9:20 PM 41.0 °F 37.1 °F 39.2 °F 93% 30.48 in 3.7 mi NNE 5.8 mph - N/A   Light Drizzle
9:50 PM 41.0 °F 39.0 °F 39.2 °F 93% 30.48 in 5.0 mi NNE 3.5 mph - N/A   Light Drizzle
10:00 PM 41 °F - 39 °F 92% 30.50 in 5 mi NNE 4.5 mph - - Rain Light Drizzle
10:20 PM 42.8 °F 41.1 °F 39.2 °F 87% 30.48 in 5.0 mi North 3.5 mph - N/A   Mostly Cloudy
10:50 PM 42.8 °F 41.1 °F 39.2 °F 87% 30.48 in 5.0 mi North 3.5 mph - N/A   Mostly Cloudy
11:20 PM 42.8 °F 41.1 °F 39.2 °F 87% 30.48 in 5.0 mi NNW 3.5 mph - N/A   Mostly Cloudy
11:50 PM 42.8 °F - 39.2 °F 87% 30.48 in 5.0 mi Variable 1.2 mph - N/A   Mostly Cloudy